Location: Bas Lanzent
(48.1360°N, 3.5871°W)
Time: 09:24:36
(UTC+00:00)

NOSS 2-1 (C) - Pass Details

Date: 18 February 2020
Orbit: 450 x 1753 km, 63.3° (Epoch: 26 March)

Event Time Altitude Azimuth Distance (km) Brightness Sun altitude
Exits shadow 05:15:23 42° 348° (NNW) 690 3.7 -20.9°
Drops below altitude 10° 05:18:30 10° 33° (NNE) 1,775 6.4 -20.4°
Sets 05:20:58 0° 39° (NE) 2,805 7.6 -20.0°
